Location: 5810 Zion Rd, Cleves, OH 45002, USA
(39.1922°N, 84.7113°W)
Time: 14:38:21
(UTC-05:00)

Courier 1B Rocket - Pass Details

Date: 08 December 2019
Orbit: 920 x 1202 km, 28.2° (Epoch: 22 January)

Event Time Altitude Azimuth Distance (km) Brightness Sun altitude
Rises 12:24:00 0° 258° (WSW) 3,564 8.1 28.1°
Reaches altitude 10° 12:27:35 10° 238° (WSW) 2,604 7.8 28.1°
Maximum altitude 12:31:21 17° 200° (SSW) 2,156 8.4 28.1°
Drops below altitude 10° 12:35:09 10° 163° (SSE) 2,613 8.7 28.1°
Sets 12:38:46 0° 143° (SE) 3,580 8.7 28.0°
